Deville, LA

1:26 AM CDT on September 28, 2016 (GMT -0500)
Alexandria Esler Regional

Weather History for KESF - February, 2014

Change the Weather History Date:

Tuesday, February 4, 2014

  Actual Average Record
Temperature  
Mean Temperature 46 °F -  
Max Temperature 52 °F 60 °F 78 °F (2008)
Min Temperature 39 °F 36 °F 19 °F (1970)
Degree Days  
Heating Degree Days 20    
Moisture  
Dew Point 43 °F    
Average Humidity 91    
Maximum Humidity 97    
Minimum Humidity 86    
Precipitation  
Precipitation 1.39 in - - ()
Sea Level Pressure  
Sea Level Pressure 29.91 in    
Wind  
Wind Speed 5 mph (NE)    
Max Wind Speed 14 mph    
Max Gust Speed 23 mph    
Visibility 3 miles    
Events Fog , Rain , Thunderstorm    
Averages and records for this station are not official NWS values.
T = Trace of Precipitation, MM = Missing Value Source: NWS Daily Summary

Daily Weather History Graph

Daily Weather History Graph

Search for Another Location

Airport or City:

Trip Planner

Search our weather history database for the weather conditions in past years. The results will help you decide how hot, cold, wet, or windy it might be!

Date:

Astronomy

Feb. 04, 2014 Rise Set
Actual Time 6:59 AM CST 5:46 PM CST
Civil Twilight 6:34 AM CST 6:12 PM CST
Nautical Twilight 6:05 AM CST 6:41 PM CST
Astronomical Twilight 5:36 AM CST 7:09 PM CST
Moon 10:01 AM CST (2/4) 11:15 PM CST (2/4)
Length of Visible Light 11h 37m
Length of Day
10h 47m
Waxing Crescent, 29% of the Moon is Illuminated
Feb 4
Waxing Crescent
Feb 6
First Quarter
Feb 14
Full
Feb 22
Last Quarter
Mar 1
New

Hourly Weather History & Observations

Time (CST) Temp. Windchill Dew Point Humidity Pressure Visibility Wind Dir Wind Speed Gust Speed Precip Events Conditions
12:25 AM 39.0 °F 34.0 °F 37.0 °F 93% 30.07 in 2.5 mi East 6.9 mph - N/A   Overcast
12:53 AM 39.0 °F 36.8 °F 37.0 °F 93% 30.07 in 2.0 mi ENE 3.5 mph - N/A   Overcast
1:01 AM 39.0 °F 36.8 °F 37.0 °F 93% 30.06 in 1.8 mi East 3.5 mph - N/A   Overcast
1:53 AM 39.9 °F 36.7 °F 37.9 °F 93% 30.06 in 1.2 mi ENE 4.6 mph - N/A   Overcast
2:51 AM 39.2 °F 37.0 °F 37.4 °F 93% 30.05 in 0.8 mi East 3.5 mph - N/A   Mist
2:53 AM 39.9 °F 37.8 °F 37.9 °F 93% 30.05 in 0.8 mi East 3.5 mph - N/A   Mist
3:53 AM 41.0 °F 36.4 °F 39.0 °F 93% 30.02 in 0.8 mi East 6.9 mph - N/A   Mist
4:50 AM 41.0 °F 38.0 °F 39.2 °F 93% 30.00 in 1.0 mi ENE 4.6 mph - 0.01 in   Mist
4:53 AM 41.0 °F 38.0 °F 39.0 °F 93% 30.01 in 1.0 mi East 4.6 mph - 0.01 in   Mist
5:45 AM 42.1 °F 39.2 °F 39.9 °F 92% 30.01 in 2.0 mi ENE 4.6 mph - N/A   Overcast
5:53 AM 42.1 °F 38.4 °F 39.9 °F 92% 30.01 in 2.0 mi East 5.8 mph - N/A   Overcast
6:23 AM 42.1 °F 38.4 °F 39.9 °F 92% 29.99 in 1.5 mi East 5.8 mph - N/A   Overcast
6:53 AM 42.1 °F 40.2 °F 39.9 °F 92% 30.00 in 1.2 mi Variable 3.5 mph - 0.00 in Rain Light Rain
7:23 AM 42.1 °F 38.4 °F 39.9 °F 92% 29.98 in 0.5 mi East 5.8 mph - 0.00 in Fog Fog
7:53 AM 43.0 °F 39.5 °F 41.0 °F 93% 29.99 in 0.8 mi ESE 5.8 mph - 0.00 in   Overcast
8:12 AM 43.0 °F 38.8 °F 41.0 °F 93% 29.98 in 1.0 mi East 6.9 mph - 0.00 in Rain Light Rain
8:53 AM 43.0 °F 39.5 °F 42.1 °F 97% 29.97 in 1.0 mi ESE 5.8 mph - 0.01 in Rain Light Rain
9:46 AM 45.0 °F 43.5 °F 43.0 °F 93% 29.96 in 2.5 mi Variable 3.5 mph - 0.00 in   Overcast
9:53 AM 45.0 °F 41.8 °F 43.0 °F 93% 29.96 in 3.0 mi ESE 5.8 mph - 0.00 in Rain Light Rain
10:31 AM 46.0 °F 43.9 °F 44.1 °F 93% 29.94 in 2.0 mi East 4.6 mph - 0.00 in   Overcast
10:38 AM 46.0 °F 43.9 °F 44.1 °F 93% 29.93 in 1.2 mi ESE 4.6 mph - 0.00 in   Overcast
10:50 AM 46.4 °F 44.3 °F 44.6 °F 93% 29.93 in 0.8 mi ESE 4.6 mph - 0.00 in Rain Light Rain
10:53 AM 46.0 °F - 44.1 °F 93% 29.93 in 1.0 mi Calm Calm - 0.00 in Rain Light Rain
11:07 AM 46.9 °F - 45.0 °F 93% 29.91 in 3.0 mi Variable 4.6 mph - 0.00 in   Overcast
11:20 AM 48.0 °F - 46.0 °F 93% 29.91 in 2.0 mi South 3.5 mph - 0.00 in   Overcast
11:27 AM 48.0 °F - 46.0 °F 93% 29.91 in 1.5 mi Calm Calm - 0.00 in Rain Light Rain
11:53 AM 48.0 °F - 46.0 °F 93% 29.89 in 1.0 mi Calm Calm - 0.02 in Rain Rain
12:05 PM 48.9 °F - 46.9 °F 93% 29.87 in 3.0 mi ESE 4.6 mph - 0.01 in Rain Light Rain
12:17 PM 50.0 °F - 46.9 °F 89% 29.85 in 1.8 mi ESE 8.1 mph - 0.04 in Rain Rain
12:28 PM 50.0 °F - 48.0 °F 93% 29.84 in 2.0 mi SE 6.9 mph - 0.08 in Rain Light Rain
12:30 PM 50.0 °F - 48.0 °F 93% 29.84 in 3.0 mi SE 5.8 mph - 0.08 in Rain , Thunderstorm Light Rain
12:34 PM 51.1 °F - 48.9 °F 92% 29.84 in 2.5 mi SE 6.9 mph - 0.12 in Rain , Thunderstorm Light Thunderstorms and Rain
12:36 PM 51.1 °F - 48.9 °F 92% 29.84 in 1.8 mi SE 5.8 mph - 0.13 in Rain , Thunderstorm Heavy Thunderstorms and Rain
12:47 PM 51.8 °F - 48.2 °F 88% 29.83 in 3.0 mi Calm Calm - 0.15 in Rain , Thunderstorm Light Rain
12:49 PM 51.8 °F - 48.2 °F 88% 29.83 in 2.5 mi Calm Calm - 0.15 in Rain , Thunderstorm Light Rain
12:53 PM 51.1 °F - 48.9 °F 92% 29.83 in 2.5 mi Calm Calm - 0.15 in Rain , Thunderstorm Rain
1:00 PM 52.0 °F - 48.9 °F 89% 29.83 in 4.0 mi SW 3.5 mph - 0.01 in Rain , Thunderstorm Light Rain
1:09 PM 52.0 °F - 50.0 °F 93% 29.81 in 6.0 mi SSW 3.5 mph - 0.01 in Rain Light Rain
1:15 PM 52.0 °F - 50.0 °F 93% 29.81 in 1.5 mi South 3.5 mph - 0.04 in Rain Heavy Rain
1:29 PM 52.0 °F - 50.0 °F 93% 29.81 in 3.0 mi West 4.6 mph - 0.07 in Rain Light Rain
1:37 PM 52.0 °F - 50.0 °F 93% 29.81 in 2.5 mi West 5.8 mph - 0.09 in Rain Rain
1:40 PM 52.0 °F - 50.0 °F 93% 29.81 in 1.2 mi WNW 3.5 mph - 0.13 in Rain , Thunderstorm Rain
1:50 PM 51.8 °F - 50.0 °F 94% 29.81 in 1.2 mi NW 4.6 mph - 0.18 in Rain , Thunderstorm Heavy Rain
1:53 PM 52.0 °F - 50.0 °F 93% 29.80 in 1.0 mi NNW 4.6 mph - 0.22 in Rain , Thunderstorm Heavy Rain
2:16 PM 52.0 °F - 50.0 °F 93% 29.80 in 1.5 mi WNW 8.1 mph - 0.13 in Rain Rain
2:26 PM 52.0 °F - 48.9 °F 89% 29.80 in 2.0 mi NNW 5.8 mph - 0.16 in Rain , Thunderstorm Rain
2:33 PM 52.0 °F - 48.9 °F 89% 29.79 in 3.0 mi NNE 5.8 mph - 0.17 in Rain , Thunderstorm Rain
2:39 PM 51.1 °F - 48.0 °F 89% 29.79 in 2.5 mi NNW 5.8 mph - 0.19 in Rain , Thunderstorm Heavy Rain
2:43 PM 50.0 °F - 48.0 °F 93% 29.81 in 2.5 mi Variable 6.9 mph - 0.20 in Rain , Thunderstorm Thunderstorms and Rain
2:53 PM 48.9 °F - 46.0 °F 90% 29.81 in 1.5 mi NW 10.4 mph 17.3 mph 0.26 in Rain , Thunderstorm Heavy Thunderstorms and Rain
2:58 PM 48.0 °F - 45.0 °F 89% 29.85 in 1.2 mi WNW 13.8 mph 19.6 mph 0.02 in Rain , Thunderstorm Heavy Rain
3:05 PM 46.0 °F 40.6 °F 43.0 °F 89% 29.85 in 3.0 mi NW 11.5 mph 23.0 mph 0.03 in Rain , Thunderstorm Rain
3:07 PM 46.0 °F 41.0 °F 43.0 °F 89% 29.84 in 2.5 mi NW 10.4 mph 23.0 mph 0.05 in Rain , Thunderstorm Heavy Rain
3:12 PM 45.0 °F 38.9 °F 43.0 °F 93% 29.86 in 1.0 mi WNW 12.7 mph 21.9 mph 0.11 in Rain , Thunderstorm Heavy Rain
3:23 PM 45.0 °F 40.6 °F 41.0 °F 86% 29.84 in 1.8 mi North 8.1 mph 17.3 mph 0.15 in Rain Heavy Rain
3:37 PM 44.1 °F 41.5 °F 41.0 °F 89% 29.85 in 2.0 mi Variable 4.6 mph - 0.21 in Rain , Thunderstorm Thunderstorms and Rain
3:45 PM 44.1 °F 41.5 °F 41.0 °F 89% 29.85 in 0.8 mi Variable 4.6 mph - 0.34 in Rain , Thunderstorm Heavy Thunderstorms and Rain
3:53 PM 44.1 °F 41.5 °F 41.0 °F 89% 29.86 in 0.8 mi NW 4.6 mph - 0.38 in Rain , Thunderstorm Thunderstorms and Rain
4:00 PM 43.0 °F - 41.0 °F 93% 29.86 in 1.2 mi Calm Calm - 0.06 in Rain , Thunderstorm Heavy Thunderstorms and Rain
4:04 PM 43.0 °F 40.3 °F 41.0 °F 93% 29.86 in 0.8 mi NW 4.6 mph - 0.12 in Rain , Thunderstorm Heavy Rain
4:11 PM 43.0 °F 39.5 °F 41.0 °F 93% 29.87 in 0.8 mi NNW 5.8 mph - 0.18 in Rain Heavy Rain
4:20 PM 43.0 °F 38.2 °F 41.0 °F 93% 29.87 in 1.0 mi NNW 8.1 mph - 0.24 in Rain Heavy Rain
4:38 PM 43.0 °F 40.3 °F 39.9 °F 89% 29.88 in 3.0 mi NW 4.6 mph - 0.27 in Rain Light Rain
4:53 PM 43.0 °F - 39.9 °F 89% 29.89 in 4.0 mi Calm Calm - 0.28 in Rain Light Rain
5:10 PM 42.1 °F 38.4 °F 39.9 °F 92% 29.89 in 2.5 mi Variable 5.8 mph - 0.02 in Rain Rain
5:18 PM 42.1 °F 38.4 °F 39.0 °F 89% 29.90 in 5.0 mi Variable 5.8 mph - 0.02 in Rain Light Rain
5:28 PM 42.1 °F 39.2 °F 39.0 °F 89% 29.90 in 2.0 mi Variable 4.6 mph - 0.04 in Rain Rain
5:39 PM 42.1 °F 40.2 °F 39.0 °F 89% 29.90 in 4.0 mi Variable 3.5 mph - 0.05 in Rain Light Rain
5:53 PM 42.1 °F - 39.0 °F 89% 29.90 in 9.0 mi Calm Calm - 0.06 in Rain Light Rain
6:23 PM 42.1 °F 40.2 °F 39.0 °F 89% 29.90 in 10.0 mi East 3.5 mph - 0.00 in   Overcast
6:32 PM 42.1 °F - 39.0 °F 89% 29.90 in 10.0 mi Calm Calm - 0.00 in   Overcast
6:53 PM 42.1 °F - 39.0 °F 89% 29.92 in 10.0 mi Calm Calm - 0.00 in   Overcast
7:44 PM 42.1 °F 39.2 °F 39.0 °F 89% 29.96 in 10.0 mi NW 4.6 mph - N/A   Overcast
7:53 PM 42.1 °F - 39.0 °F 89% 29.96 in 10.0 mi Calm Calm - N/A   Overcast
8:18 PM 42.1 °F 39.2 °F 39.0 °F 89% 29.98 in 10.0 mi Variable 4.6 mph - N/A   Overcast
8:42 PM 42.1 °F 39.2 °F 39.0 °F 89% 30.00 in 10.0 mi Variable 4.6 mph - N/A   Overcast
8:53 PM 42.1 °F 40.2 °F 39.0 °F 89% 30.00 in 10.0 mi NW 3.5 mph - N/A   Overcast
9:02 PM 41.0 °F - 39.0 °F 93% 30.00 in 10.0 mi Calm Calm - N/A   Overcast
9:53 PM 41.0 °F 37.1 °F 37.9 °F 89% 30.03 in 10.0 mi NW 5.8 mph - N/A   Overcast
10:53 PM 41.0 °F 37.1 °F 37.9 °F 89% 30.08 in 10.0 mi WNW 5.8 mph - N/A   Overcast
11:53 PM 41.0 °F 36.4 °F 37.9 °F 89% 30.10 in 10.0 mi NW 6.9 mph - N/A   Overcast